TKJ5ZF LTBJ-LTFJ

Flight info

Callsign TKJ5ZF
Flight time 0h 40m
Altitude 30000
Route BERGO UG80 DUGLA UY371 VUTZO
Aircraft A21N/M-SDE3FGHIRWY/LB1

Departure

Time 2026-04-29 20:29
Airport Adnan Menderes International Airport (LTBJ)

Arrival

Time 2026-04-29 21:10
Airport Istanbul Sabiha Gökçen International Airport (LTFJ)
Time Latitude Longitude Altitude Speed Heading
2026-04-29 19:41 38.29198 27.15085 407 ft 0 kts 257°
2026-04-29 19:57 38.29199 27.15089 407 ft 2 kts 257°
2026-04-29 19:57 38.29202 27.15108 407 ft 2 kts 256°
2026-04-29 19:57 38.29205 27.15123 407 ft 0 kts 257°
2026-04-29 19:57 38.29209 27.15138 407 ft 2 kts 237°
2026-04-29 19:58 38.29219 27.15152 406 ft 2 kts 215°
2026-04-29 19:58 38.29233 27.15161 406 ft 2 kts 191°
2026-04-29 19:58 38.29247 27.15161 405 ft 0 kts 170°
2026-04-29 19:58 38.29253 27.15160 405 ft 1 kts 165°
2026-04-29 19:59 38.29255 27.15159 405 ft 0 kts 166°
2026-04-29 20:00 38.29239 27.15164 406 ft 3 kts 166°
2026-04-29 20:00 38.29218 27.15157 406 ft 3 kts 216°
2026-04-29 20:00 38.29207 27.15130 407 ft 4 kts 258°
2026-04-29 20:01 38.29199 27.15090 407 ft 2 kts 256°
2026-04-29 20:01 38.29198 27.15085 407 ft 0 kts 256°
2026-04-29 20:10 38.29200 27.15099 406 ft 2 kts 256°
2026-04-29 20:10 38.29203 27.15117 406 ft 2 kts 258°
2026-04-29 20:10 38.29206 27.15135 406 ft 2 kts 258°
2026-04-29 20:11 38.29213 27.15153 406 ft 2 kts 220°
2026-04-29 20:11 38.29227 27.15162 405 ft 2 kts 190°
2026-04-29 20:11 38.29242 27.15161 405 ft 2 kts 161°
2026-04-29 20:11 38.29256 27.15156 405 ft 1 kts 168°
2026-04-29 20:12 38.29257 27.15156 405 ft 0 kts 168°
2026-04-29 20:20 38.29254 27.15156 405 ft 2 kts 168°
2026-04-29 20:20 38.29218 27.15167 405 ft 6 kts 166°
2026-04-29 20:20 38.29167 27.15183 406 ft 7 kts 167°
2026-04-29 20:21 38.29107 27.15202 406 ft 11 kts 166°
2026-04-29 20:21 38.29035 27.15223 406 ft 8 kts 158°
2026-04-29 20:21 38.29007 27.15281 406 ft 7 kts 117°
2026-04-29 20:21 38.28949 27.15316 406 ft 12 kts 166°
2026-04-29 20:22 38.28857 27.15344 406 ft 13 kts 166°
2026-04-29 20:22 38.28761 27.15373 405 ft 12 kts 167°
2026-04-29 20:22 38.28677 27.15397 405 ft 14 kts 166°
2026-04-29 20:22 38.28553 27.15435 404 ft 20 kts 167°
2026-04-29 20:23 38.28408 27.15479 401 ft 21 kts 167°
2026-04-29 20:23 38.28259 27.15525 397 ft 22 kts 166°
2026-04-29 20:23 38.28120 27.15566 391 ft 15 kts 167°
2026-04-29 20:23 38.28089 27.15575 390 ft 3 kts 168°
2026-04-29 20:24 38.28074 27.15579 390 ft 1 kts 168°
2026-04-29 20:24 38.28032 27.15591 389 ft 11 kts 167°
2026-04-29 20:24 38.27919 27.15626 386 ft 19 kts 166°
2026-04-29 20:24 38.27808 27.15660 382 ft 16 kts 166°
2026-04-29 20:25 38.27757 27.15704 380 ft 7 kts 99°
2026-04-29 20:25 38.27766 27.15772 380 ft 6 kts 73°
2026-04-29 20:25 38.27768 27.15783 380 ft 0 kts 77°
2026-04-29 20:26 38.27771 27.15801 380 ft 7 kts 77°
2026-04-29 20:26 38.27785 27.15877 379 ft 5 kts 77°
2026-04-29 20:27 38.27809 27.15905 380 ft 5 kts 359°
2026-04-29 20:27 38.27823 27.15903 380 ft 1 kts 354°
2026-04-29 20:27 38.27836 27.15900 380 ft 0 kts 349°
2026-04-29 20:28 38.27835 27.15900 380 ft 0 kts 349°
2026-04-29 20:29 38.28082 27.15828 388 ft 73 kts 346°
2026-04-29 20:29 38.28801 27.15612 404 ft 135 kts 347°
2026-04-29 20:29 38.29881 27.15288 554 ft 173 kts 347°
2026-04-29 20:29 38.31039 27.14917 1187 ft 176 kts 342°
2026-04-29 20:30 38.32016 27.14042 1945 ft 178 kts 313°
2026-04-29 20:30 38.32899 27.12940 2522 ft 182 kts 333°
2026-04-29 20:30 38.34158 27.12624 2825 ft 192 kts
2026-04-29 20:30 38.35540 27.12652 3128 ft 207 kts
2026-04-29 20:31 38.37050 27.12679 3380 ft 227 kts
2026-04-29 20:31 38.38706 27.12616 3707 ft 246 kts 356°
2026-04-29 20:31 38.40444 27.12302 4159 ft 259 kts 349°
2026-04-29 20:31 38.42226 27.11802 4856 ft 263 kts 348°
2026-04-29 20:32 38.44012 27.11271 5592 ft 265 kts 348°
2026-04-29 20:32 38.45804 27.10731 6326 ft 267 kts 347°
2026-04-29 20:32 38.47632 27.10178 7044 ft 270 kts 347°
2026-04-29 20:32 38.49468 27.09622 7748 ft 274 kts 347°
2026-04-29 20:33 38.51309 27.09064 8455 ft 276 kts 347°
2026-04-29 20:33 38.53200 27.08491 9161 ft 279 kts 347°
2026-04-29 20:33 38.55088 27.07919 9818 ft 283 kts 346°
2026-04-29 20:33 38.57010 27.07336 10424 ft 288 kts 346°
2026-04-29 20:34 38.59029 27.06734 10750 ft 303 kts 348°
2026-04-29 20:34 38.61155 27.06409 11034 ft 319 kts 357°
2026-04-29 20:34 38.63433 27.06536 11314 ft 334 kts
2026-04-29 20:34 38.65812 27.06943 11584 ft 349 kts
2026-04-29 20:35 38.68219 27.07401 12033 ft 356 kts
2026-04-29 20:35 38.70678 27.07872 12612 ft 360 kts
2026-04-29 20:35 38.73165 27.08343 13173 ft 363 kts
2026-04-29 20:35 38.75680 27.08814 13706 ft 367 kts
2026-04-29 20:36 38.78215 27.09286 14245 ft 370 kts
2026-04-29 20:36 38.80763 27.09759 14781 ft 373 kts
2026-04-29 20:36 38.83354 27.10239 15348 ft 375 kts
2026-04-29 20:36 38.85941 27.10719 15866 ft 378 kts
2026-04-29 20:37 38.88545 27.11200 16352 ft 380 kts
2026-04-29 20:37 38.91148 27.11683 16856 ft 383 kts
2026-04-29 20:37 38.93799 27.12176 17329 ft 386 kts
2026-04-29 20:37 38.96468 27.12672 17795 ft 388 kts
2026-04-29 20:38 38.99143 27.13169 18253 ft 390 kts
2026-04-29 20:38 39.01826 27.13663 18698 ft 392 kts
2026-04-29 20:38 39.04532 27.14157 19143 ft 394 kts
2026-04-29 20:38 39.07267 27.14655 19573 ft 397 kts
2026-04-29 20:39 39.10008 27.15154 19989 ft 399 kts
2026-04-29 20:39 39.12775 27.15659 20380 ft 402 kts
2026-04-29 20:39 39.15580 27.16172 20759 ft 405 kts
2026-04-29 20:39 39.18360 27.16679 21110 ft 408 kts
2026-04-29 20:40 39.21185 27.17197 21495 ft 410 kts
2026-04-29 20:40 39.23988 27.17712 21868 ft 412 kts
2026-04-29 20:40 39.26851 27.18237 22234 ft 414 kts
2026-04-29 20:40 39.29723 27.18763 22610 ft 416 kts
2026-04-29 20:41 39.32584 27.19288 22953 ft 418 kts
2026-04-29 20:41 39.35456 27.19815 23073 ft 420 kts
2026-04-29 20:41 39.38339 27.20344 23080 ft 419 kts
2026-04-29 20:41 39.41251 27.20880 23085 ft 419 kts
2026-04-29 20:42 39.44144 27.21413 23092 ft 419 kts
2026-04-29 20:42 39.47023 27.21976 23084 ft 420 kts
2026-04-29 20:42 39.49860 27.22704 23093 ft 422 kts
2026-04-29 20:42 39.52711 27.23640 23095 ft 424 kts 12°
2026-04-29 20:43 39.55543 27.24744 23094 ft 424 kts 13°
2026-04-29 20:43 39.58368 27.25895 23098 ft 424 kts 14°
2026-04-29 20:43 39.61170 27.27045 23103 ft 423 kts 14°
2026-04-29 20:43 39.63962 27.28191 23103 ft 423 kts 14°
2026-04-29 20:44 39.66765 27.29337 23100 ft 423 kts 14°
2026-04-29 20:44 39.69575 27.30485 23101 ft 423 kts 13°
2026-04-29 20:44 39.72387 27.31632 23098 ft 423 kts 14°
2026-04-29 20:44 39.75220 27.32793 23102 ft 423 kts 14°
2026-04-29 20:45 39.78018 27.33941 23100 ft 423 kts 14°
2026-04-29 20:45 39.80797 27.35083 23104 ft 423 kts 14°
2026-04-29 20:45 39.83604 27.36237 23097 ft 423 kts 14°
2026-04-29 20:45 39.86436 27.37402 23102 ft 423 kts 14°
2026-04-29 20:46 39.89220 27.38549 23106 ft 423 kts 14°
2026-04-29 20:46 39.92023 27.39704 23105 ft 423 kts 13°
2026-04-29 20:46 39.94854 27.40871 23105 ft 424 kts 13°
2026-04-29 20:46 39.97633 27.42015 23103 ft 424 kts 13°
2026-04-29 20:47 40.00478 27.43188 23102 ft 423 kts 13°
2026-04-29 20:47 40.03283 27.44345 23102 ft 424 kts 13°
2026-04-29 20:47 40.06093 27.45505 23102 ft 423 kts 13°
2026-04-29 20:47 40.08907 27.46667 23102 ft 423 kts 13°
2026-04-29 20:48 40.11750 27.47841 23102 ft 424 kts 13°
2026-04-29 20:48 40.14545 27.48997 23101 ft 424 kts 13°
2026-04-29 20:48 40.17321 27.50148 23094 ft 416 kts 13°
2026-04-29 20:48 40.20014 27.51270 23094 ft 399 kts 13°
2026-04-29 20:49 40.22641 27.52363 23101 ft 394 kts 13°
2026-04-29 20:49 40.25257 27.53448 23102 ft 394 kts 13°
2026-04-29 20:49 40.27865 27.54592 23102 ft 396 kts 17°
2026-04-29 20:49 40.30376 27.56074 23104 ft 399 kts 23°
2026-04-29 20:50 40.32754 27.57932 23105 ft 402 kts 30°
2026-04-29 20:50 40.35037 27.60086 23105 ft 403 kts 33°
2026-04-29 20:50 40.37287 27.62309 23105 ft 403 kts 33°
2026-04-29 20:50 40.39517 27.64520 23037 ft 403 kts 33°
2026-04-29 20:51 40.41749 27.66721 22724 ft 401 kts 33°
2026-04-29 20:51 40.43979 27.68889 22320 ft 398 kts 31°
2026-04-29 20:51 40.46317 27.70807 21882 ft 392 kts 25°
2026-04-29 20:51 40.48719 27.72344 21453 ft 386 kts 19°
2026-04-29 20:52 40.51207 27.73641 21007 ft 382 kts 17°
2026-04-29 20:52 40.53695 27.74875 20557 ft 379 kts 17°
2026-04-29 20:52 40.56163 27.76095 20106 ft 377 kts 17°
2026-04-29 20:52 40.58607 27.77312 19656 ft 375 kts 17°
2026-04-29 20:53 40.61035 27.78532 19346 ft 368 kts 18°
2026-04-29 20:53 40.63369 27.79709 19192 ft 357 kts 17°
2026-04-29 20:53 40.65614 27.80978 19023 ft 350 kts 27°
2026-04-29 20:53 40.67357 27.83161 18825 ft 348 kts 55°
2026-04-29 20:54 40.68198 27.89327 18035 ft 349 kts 92°
2026-04-29 20:54 40.68071 27.92517 17633 ft 347 kts 92°
2026-04-29 20:54 40.67984 27.95684 17243 ft 346 kts 91°
2026-04-29 20:55 40.67944 27.98817 16853 ft 344 kts 90°
2026-04-29 20:55 40.67929 28.01985 16451 ft 342 kts 89°
2026-04-29 20:55 40.67923 28.05082 16056 ft 340 kts 89°
2026-04-29 20:55 40.67918 28.08182 15663 ft 338 kts 89°
2026-04-29 20:56 40.67911 28.11236 15277 ft 336 kts 89°
2026-04-29 20:56 40.67904 28.14303 14888 ft 333 kts 90°
2026-04-29 20:56 40.67896 28.17325 14513 ft 331 kts 89°
2026-04-29 20:56 40.67886 28.20361 14116 ft 329 kts 89°
2026-04-29 20:57 40.67876 28.23324 13737 ft 327 kts 89°
2026-04-29 20:57 40.67865 28.26302 13350 ft 325 kts 89°
2026-04-29 20:57 40.67852 28.29251 12971 ft 322 kts 89°
2026-04-29 20:57 40.67839 28.32205 12600 ft 320 kts 90°
2026-04-29 20:58 40.67793 28.35111 12228 ft 318 kts 90°
2026-04-29 20:58 40.67728 28.38001 11852 ft 316 kts 91°
2026-04-29 20:58 40.67660 28.40873 11479 ft 314 kts 91°
2026-04-29 20:58 40.67594 28.43743 11118 ft 311 kts 90°
2026-04-29 20:59 40.67531 28.46555 10756 ft 309 kts 90°
2026-04-29 20:59 40.67468 28.49368 10397 ft 307 kts 90°
2026-04-29 20:59 40.67406 28.52163 10046 ft 304 kts 90°
2026-04-29 20:59 40.67343 28.54939 9713 ft 301 kts 90°
2026-04-29 21:00 40.67283 28.57656 9365 ft 299 kts 90°
2026-04-29 21:00 40.67222 28.60362 9111 ft 292 kts 90°
2026-04-29 21:00 40.67175 28.62994 9036 ft 278 kts 86°
2026-04-29 21:00 40.67437 28.65440 8979 ft 267 kts 73°
2026-04-29 21:01 40.68007 28.67770 8988 ft 267 kts 69°
2026-04-29 21:01 40.68644 28.70094 8835 ft 269 kts 68°
2026-04-29 21:01 40.69281 28.72404 8451 ft 269 kts 68°
2026-04-29 21:01 40.69908 28.74701 8129 ft 266 kts 69°
2026-04-29 21:02 40.70524 28.76986 7806 ft 264 kts 69°
2026-04-29 21:02 40.71130 28.79251 7474 ft 261 kts 69°
2026-04-29 21:02 40.71726 28.81483 7163 ft 258 kts 69°
2026-04-29 21:02 40.72320 28.83722 6855 ft 255 kts 70°
2026-04-29 21:03 40.72901 28.85914 6553 ft 252 kts 70°
2026-04-29 21:03 40.73472 28.88068 6257 ft 250 kts 70°
2026-04-29 21:03 40.74041 28.90218 5945 ft 248 kts 70°
2026-04-29 21:03 40.74607 28.92366 5641 ft 247 kts 70°
2026-04-29 21:04 40.75167 28.94488 5343 ft 245 kts 70°
2026-04-29 21:04 40.75724 28.96604 5045 ft 243 kts 70°
2026-04-29 21:04 40.76274 28.98687 4756 ft 241 kts 70°
2026-04-29 21:04 40.76844 29.00761 4534 ft 234 kts 65°
2026-04-29 21:05 40.77639 29.02590 4353 ft 226 kts 54°
2026-04-29 21:05 40.78577 29.04216 4100 ft 222 kts 52°
2026-04-29 21:05 40.79526 29.05792 3871 ft 218 kts 52°
2026-04-29 21:05 40.80457 29.07339 3592 ft 215 kts 52°
2026-04-29 21:06 40.81366 29.08859 3342 ft 211 kts 52°
2026-04-29 21:06 40.82226 29.10455 3090 ft 207 kts 59°
2026-04-29 21:06 40.82919 29.12075 2986 ft 196 kts 63°
2026-04-29 21:06 40.83532 29.13670 2986 ft 195 kts 64°
2026-04-29 21:07 40.84117 29.15262 2969 ft 185 kts 64°
2026-04-29 21:07 40.84648 29.16725 3040 ft 171 kts 64°
2026-04-29 21:07 40.85144 29.18087 2982 ft 159 kts 64°
2026-04-29 21:07 40.85618 29.19383 2723 ft 156 kts 64°
2026-04-29 21:08 40.86070 29.20616 2653 ft 147 kts 64°
2026-04-29 21:08 40.86515 29.21830 2244 ft 148 kts 64°
2026-04-29 21:08 40.86961 29.23044 1821 ft 148 kts 64°
2026-04-29 21:08 40.87412 29.24272 1391 ft 148 kts 64°
2026-04-29 21:09 40.87849 29.25466 1082 ft 140 kts 63°
2026-04-29 21:09 40.88266 29.26618 847 ft 140 kts 64°
2026-04-29 21:09 40.88688 29.27764 633 ft 139 kts 62°
2026-04-29 21:09 40.89111 29.28902 431 ft 138 kts 63°
2026-04-29 21:10 40.89530 29.30030 322 ft 126 kts 62°
2026-04-29 21:10 40.89829 29.30846 321 ft 61 kts 64°
2026-04-29 21:10 40.89947 29.31136 321 ft 29 kts 53°
2026-04-29 21:10 40.90073 29.31294 321 ft 19 kts 36°
2026-04-29 21:11 40.90181 29.31392 321 ft 18 kts 33°
2026-04-29 21:11 40.90272 29.31493 321 ft 16 kts 52°
2026-04-29 21:11 40.90325 29.31626 321 ft 16 kts 62°
2026-04-29 21:11 40.90373 29.31756 321 ft 15 kts 65°
2026-04-29 21:12 40.90419 29.31882 321 ft 14 kts 64°
2026-04-29 21:12 40.90451 29.31968 321 ft 8 kts 57°
2026-04-29 21:12 40.90504 29.31986 321 ft 9 kts 340°
2026-04-29 21:12 40.90564 29.31951 321 ft 9 kts 335°
2026-04-29 21:13 40.90625 29.31908 321 ft 10 kts 331°
2026-04-29 21:13 40.90681 29.31870 321 ft 6 kts 333°
2026-04-29 21:13 40.90705 29.31855 321 ft 1 kts 333°
2026-04-29 21:13 40.90706 29.31854 321 ft 0 kts 333°